Regional Weather Roundup
Issued by NWS Mt. Holly, NJ

Home | Current Version | Previous Version | Text Only | Print | Product List | Glossary On
Versions: 1 2 3 4 5 6 7 8 9 10 11 12 13 14 15 16 17 18 19 20 21 22 23 24 25 26 27 28 29 30 31 32 33 34 35 36 37 38 39 40 41 42 43 44 45 46 47 48 49 50
000
ASUS41 KPHI 231112
RWRPHI

REGIONAL WEATHER ROUNDUP
NATIONAL WEATHER SERVICE MOUNT HOLLY NJ
700 AM EDT THU MAR 23 2017

NOTE:  "FAIR" INDICATES FEW OR NO CLOUDS BELOW 12,000 FEET WITH NO
SIGNIFICANT WEATHER AND/OR OBSTRUCTIONS TO VISIBILITY.

 * = STATION DOES NOT REPORT PRECIPITATION (E.G. RAIN, SNOW, ETC.)
        OR FOG.

NJZ015>026-231200-
SOUTHERN NEW JERSEY

CITY           SKY/WX    TMP DP  RH WIND       PRES   REMARKS
POMONA         CLEAR     19   4  51 NW6       30.59R WCI  11
WILDWOOD*      CLEAR     24   9  52 N7        30.60R WCI  16
MILLVILLE      CLEAR     20   7  57 W3        30.59R
WRIGHTSTOWN    CLEAR     19   6  58 W3        30.55R
MOUNT HOLLY    CLEAR     22   5  48 VRB3      30.59R
TRENTON        CLEAR     21   7  54 NW6       30.57R WCI  13

$$
NJZ001>014-231200-
NORTHERN NEW JERSEY

CITY           SKY/WX    TMP DP  RH WIND       PRES   REMARKS
SUSSEX         CLEAR     19   6  57 W3        30.53R
ANDOVER*         N/A     16   7  67 NW3       30.54R
MORRISTOWN     CLEAR     21   9  58 NW8       30.57R WCI  12
NEWARK         CLEAR     24   5  44 NW9       30.57R WCI  14
TETERBORO      CLEAR     23   8  52 NW13G18   30.56R WCI  11
CALDWELL       CLEAR     21   6  52 W6        30.56R WCI  13
SOMERVILLE     PTCLDY    17   9  70 CALM      30.57R
ALLAIRE*       CLEAR     18   7  62 W6        30.57R WCI  10
TOMS RIVER*    CLEAR     13   6  74 CALM      30.59R

$$
PAZ043-044-047-054-055-060>062-066>071-231200-
EASTERN PENNSYLVANIA

CITY           SKY/WX    TMP DP  RH WIND       PRES   REMARKS
PHILADELPHIA   CLEAR     24   5  44 NW10      30.61R WCI  14
NORTH PHILA    CLEAR     22   7  52 NW6       30.61R WCI  14
BLUE BELL*     CLEAR     21   9  58 CALM      30.58R
QUAKERTOWN*    CLEAR     19   7  58 NW3       30.57R
PERKASIE*      FAIR      18   7  62 CALM      30.57R
POTTSTOWN      PTCLDY    17   6  62 CALM      30.61R
LANCASTER      CLEAR     22   8  55 CALM      30.60R
COATESVILLE    PTCLDY    21   3  45 NW7       30.58R WCI  13
READING        PTCLDY    22   7  52 W7        30.59R WCI  13
ALLENTOWN      PTCLDY    21   6  52 NW5       30.58R WCI  15
MOUNT POCONO   CLEAR     10   4  76 NW7       30.43R WCI  -1
HAZLETON       CLEAR     14   5  67 W5        30.51R WCI   6
LEHIGHTON      FAIR      14  10  85 CALM      30.58R
WILKES BARRE   CLEAR     18   7  62 NW5       30.53R WCI  11

$$
DEZALL-MDZ008-012-015-019-020-231200-
DELAWARE AND EASTERN MARYLAND

CITY           SKY/WX    TMP DP  RH WIND       PRES   REMARKS
WILMINGTON     CLEAR     21   6  52 NW6       30.62R WCI  13
DOVER          CLEAR     22  11  63 N9        30.60R WCI  12
GEORGETOWN     CLEAR     27   8  44 N7        30.61R WCI  19
EASTON         CLEAR     25   7  46 N7        30.65R WCI  17
ABERDEEN       CLEAR     20   9  63 CALM      30.63R
PATUXENT       PTCLDY    28  10  46 NE10      30.61R WCI  19
OCEAN CITY     CLEAR     27  10  49 N10       30.59R WCI  17
WALLOPS ISLAND CLEAR     25  10  53 N5        30.60R WCI  19
CAMBRIDGE      CLEAR     27   3  36 N9        30.62R WCI  17
SALISBURY      CLEAR     24   8  50 N7        30.60R WCI  16

$$
PAZ001-021-NYZ056-072-MDZ011-DCZ001-231200-
OTHER NEARBY LOCATIONS

CITY           SKY/WX    TMP DP  RH WIND       PRES   REMARKS
HARRISBURG     CLEAR     25   6  44 NW6       30.61R WCI  18
STATE COLLEGE  CLEAR     19   7  58 CALM      30.55R
WILLIAMSPORT   CLEAR     19   9  65 NW5       30.59R WCI  12
BINGHAMTON     CLEAR     12   6  77 NW5       30.46R WCI   4
NEW YORK CITY  CLEAR     23   6  48 W8        30.56R WCI  14
BALTIMORE      PTCLDY    27   4  37 VRB5      30.61R WCI  22
WASHINGTON DC  CLEAR     30   7  37 NE7       30.63R WCI  23

$$



USA.gov is the U.S. government's official web portal to all federal, state and local government web resources and services.